Погода в Бельцах

Молдова     47°45′38″N   27°55′38″E
темп.,
°C
ветер,
м/с
пор.,
м/с
влажн.,
%
обл.,
%
осадки,
мм/ч
давл.,
гПа
погр.,
м
16 мая, пн
пн1600:00+13сз2272100 0.0 101920
03:00+13ссз256963 0.0 1019121
06:00+10с22815 0.0 101927
09:00+16ссз23575 0.0 1020498
12:00+19сз364489 0.0 10191881
15:00+21сз5638100 0.0 10182130
18:00+20сз35396 0.0 10171942
21:00+14всв236330 0.0 101833
17 мая, вт
вт1700:00+15всв1160100 0.0 101812
03:00+14ссв1159100 0.0 101816
06:00+13ссв226655 0.0 101738
09:00+16ссв225989 0.0 1017470
12:00+20ссз3449100 0.0 10161690
15:00+19сз3455100 0.2 1015710
18:00+20ссз3449100 0.3 10141570
21:00+15с41058100 0.3 1015265
18 мая, ср
ср1800:00+12с61245100 0.0 1016635
03:00+10ссз61246100 0.0 1018584
06:00+7ссз4125912 0.0 1019401
09:00+11ссз712535 0.0 10211588
12:00+14ссз9123899 0.0 10212584
15:00+14с9124366 0.0 10222294
18:00+15с8114357 0.0 10232178
21:00+11сз366013 0.0 102597
19 мая, чт
чт1900:00+9сз412687 0.0 1027247
03:00+7сз35763 0.0 102889
06:00+6сз34804 0.0 102977
09:00+13сз35575 0.0 1029566
12:00+17сз45405 0.0 10281494
15:00+20зсз45335 0.0 10271731
18:00+20зсз45335 0.0 10251517
21:00+14з2249100 0.0 102511
20 мая, пт
пт2000:00+13зюз225019 0.0 102510
03:00+11зюз115557 0.0 102410
06:00+10юз116058 0.0 102410
09:00+17юз234936 0.0 1023341
12:00+22ююз444131 0.0 10211012
15:00+25юз5632100 0.0 10181598
18:00+25зюз3732100 0.0 10161567
21:00+19з225218 0.0 101513